K6OUA-11 Weather Reports


time (UTC)temp
C
wind
direction
speed
KPH
gust
KPH
rain 1hr
cm
rain 24hr
cm
rain mn
cm
humidity
%
barometer
mb
20190325235329 21 254 6.4 9.7 0.00 0.00 0.00 52 1012.3
20190325234725 21 243 4.8 8.0 0.00 0.00 0.00 53 1012.3
20190325234424 21 216 8.0 9.7 0.00 0.00 0.00 53 1012.3
20190325234125 21 270 8.0 11.3 0.00 0.00 0.00 52 1012.2
20190325233823 21 274 6.4 11.3 0.00 0.00 0.00 52 1012.2
20190325233522 21 261 3.2 6.4 0.00 0.00 0.00 52 1012.3
20190325232918 21 245 6.4 9.7 0.00 0.00 0.00 52 1012.3
20190325232619 21 272 6.4 9.7 0.00 0.00 0.00 52 1012.3
20190325232316 22 240 6.4 11.3 0.00 0.00 0.00 52 1012.3
20190325231715 22 245 1.6 12.9 0.00 0.00 0.00 52 1012.4
20190325231415 22 213 4.8 9.7 0.00 0.00 0.00 52 1012.4
20190325230812 22 254 6.4 11.3 0.00 0.00 0.00 52 1012.4
20190325230511 22 243 4.8 9.7 0.00 0.00 0.00 52 1012.4
20190325230210 22 261 6.4 9.7 0.00 0.00 0.00 52 1012.5
20190325225907 22 204 4.8 12.9 0.00 0.00 0.00 52 1012.4
20190325225608 22 245 8.0 12.9 0.00 0.00 0.00 52 1012.6
20190325225307 22 229 4.8 14.5 0.00 0.00 0.00 52 1012.8
20190325225004 22 254 9.7 14.5 0.00 0.00 0.00 52 1012.5
20190325224705 22 315 8.0 11.3 0.00 0.00 0.00 52 1012.6
20190325224403 22 285 11.3 11.3 0.00 0.00 0.00 52 1012.6
20190325224103 22 231 11.3 11.3 0.00 0.00 0.00 53 1012.6
20190325223759 22 261 11.3 11.3 0.00 0.00 0.00 52 1012.5
20190325223458 22 252 8.0 9.7 0.00 0.00 0.00 52 1012.5
20190325223159 22 270 4.8 8.0 0.00 0.00 0.00 53 1012.6
20190325222858 22 261 4.8 12.9 0.00 0.00 0.00 53 1012.7
20190325222557 22 270 6.4 12.9 0.00 0.00 0.00 53 1012.7
20190325222254 22 272 14.5 16.1 0.00 0.00 0.00 52 1012.6
20190325222032 22 230 8.0 12.9 0.00 0.00 0.00 52 1012.7
20190325221955 22 230 8.0 12.9 0.00 0.00 0.00 52 1012.7
20190325221652 22 256 11.3 11.3 0.00 0.00 0.00 53 1012.5
20190325221352 22 249 8.0 12.9 0.00 0.00 0.00 52 1012.6
20190325221050 22 265 9.7 12.9 0.00 0.00 0.00 52 1012.4
20190325220750 22 238 11.3 14.5 0.00 0.00 0.00 52 1012.5
20190325220148 22 252 6.4 11.3 0.00 0.00 0.00 52 1012.8
20190325215846 22 215 6.4 11.3 0.00 0.00 0.00 52 1012.7
20190325215243 22 261 8.0 11.3 0.00 0.00 0.00 52 1012.6
20190325214943 22 247 8.0 11.3 0.00 0.00 0.00 53 1012.7
20190325214642 22 247 9.7 12.9 0.00 0.00 0.00 53 1012.7
20190325214341 22 261 11.3 11.3 0.00 0.00 0.00 53 1012.6
20190325214038 22 225 4.8 11.3 0.00 0.00 0.00 54 1012.6
20190325213739 22 232 8.0 11.3 0.00 0.00 0.00 54 1012.7
20190325213436 22 243 9.7 11.3 0.00 0.00 0.00 54 1012.6
20190325213135 22 252 6.4 11.3 0.00 0.00 0.00 54 1012.7
20190325212836 22 202 1.6 11.3 0.00 0.00 0.00 55 1012.7
20190325212535 22 254 6.4 12.9 0.00 0.00 0.00 54 1012.7
20190325212233 23 247 6.4 12.9 0.00 0.00 0.00 53 1012.8
20190325211932 23 208 4.8 9.7 0.00 0.00 0.00 54 1012.9
20190325211630 23 236 8.0 12.9 0.00 0.00 0.00 54 1012.7
20190325211330 23 231 9.7 17.7 0.00 0.00 0.00 54 1012.8
20190325210728 23 240 8.0 16.1 0.00 0.00 0.00 54 1012.8
20190325210127 23 235 4.8 17.7 0.00 0.00 0.00 53 1012.9
20190325205823 23 265 9.7 17.7 0.00 0.00 0.00 53 1012.8
20190325205223 23 265 9.7 12.9 0.00 0.00 0.00 53 1012.7
20190325204920 24 236 8.0 12.9 0.00 0.00 0.00 52 1012.7
20190325204619 24 236 9.7 12.9 0.00 0.00 0.00 52 1012.7
20190325204318 24 245 12.9 14.5 0.00 0.00 0.00 52 1012.7
20190325203715 24 227 9.7 16.1 0.00 0.00 0.00 51 1012.7
20190325203416 25 261 12.9 14.5 0.00 0.00 0.00 49 1012.8
20190325203116 25 247 8.0 17.7 0.00 0.00 0.00 49 1012.8
20190325203114 25 247 8.0 17.7 0.00 0.00 0.00 49 1012.8
20190325202812 25 285 14.5 17.7 0.00 0.00 0.00 49 1012.8
20190325202513 24 220 4.8 19.3 0.00 0.00 0.00 49 1012.7
20190325201608 24 261 3.2 9.7 0.00 0.00 0.00 49 1012.9
20190325201306 24 247 6.4 9.7 0.00 0.00 0.00 49 1012.9
20190325201008 24 252 4.8 12.9 0.00 0.00 0.00 48 1013.0
20190325200709 24 270 9.7 19.3 0.00 0.00 0.00 48 1013.0
20190325200706 24 270 9.7 19.3 0.00 0.00 0.00 48 1013.0
20190325200106 24 274 6.4 12.9 0.00 0.00 0.00 48 1013.0
20190325200103 24 274 6.4 12.9 0.00 0.00 0.00 48 1013.0
20190325195803 24 272 9.7 11.3 0.00 0.00 0.00 49 1013.1
20190325195502 24 261 4.8 11.3 0.00 0.00 0.00 49 1013.1
20190325194858 23 310 4.8 11.3 0.00 0.00 0.00 48 1013.2
20190325194558 23 285 4.8 11.3 0.00 0.00 0.00 49 1013.3
20190325194257 23 258 8.0 8.0 0.00 0.00 0.00 51 1013.2
20190325193956 23 256 3.2 11.3 0.00 0.00 0.00 50 1013.3
20190325193354 23 243 6.4 11.3 0.00 0.00 0.00 50 1013.4
20190325193053 23 231 4.8 8.0 0.00 0.00 0.00 51 1013.5
20190325192750 23 270 3.2 8.0 0.00 0.00 0.00 51 1013.6
20190325192452 23 245 6.4 11.3 0.00 0.00 0.00 52 1013.6
20190325192450 23 245 6.4 11.3 0.00 0.00 0.00 52 1013.6
20190325192148 23 267 6.4 9.7 0.00 0.00 0.00 51 1013.6
20190325191546 23 254 8.0 11.3 0.00 0.00 0.00 52 1013.8
20190325190943 23 267 6.4 11.3 0.00 0.00 0.00 52 1013.8
20190325190644 23 276 9.7 11.3 0.00 0.00 0.00 52 1013.9
20190325190343 23 270 4.8 9.7 0.00 0.00 0.00 53 1013.9
20190325185741 23 229 4.8 6.4 0.00 0.00 0.00 55 1014.0
20190325185438 23 249 6.4 11.3 0.00 0.00 0.00 55 1014.0
20190325184837 23 227 4.8 6.4 0.00 0.00 0.00 56 1014.0
20190325184233 22 261 4.8 6.4 0.00 0.00 0.00 57 1013.9
20190325183932 22 180 0.0 8.0 0.00 0.00 0.00 57 1014.0
20190325183330 22 279 9.7 11.3 0.00 0.00 0.00 58 1014.1
20190325183031 22 240 6.4 6.4 0.00 0.00 0.00 59 1014.2
20190325182728 22 157 0.0 8.0 0.00 0.00 0.00 60 1014.2
20190325182126 21 225 6.4 8.0 0.00 0.00 0.00 61 1014.2
20190325181825 21 270 6.4 8.0 0.00 0.00 0.00 61 1014.2
20190325181523 21 252 4.8 12.9 0.00 0.00 0.00 60 1014.3
20190325180923 21 227 3.2 9.7 0.00 0.00 0.00 61 1014.3
20190325180622 22 265 4.8 9.7 0.00 0.00 0.00 60 1014.3
20190325180321 22 265 4.8 9.7 0.00 0.00 0.00 60 1014.3
20190325175719 22 270 9.7 14.5 0.00 0.00 0.00 60 1014.3
20190325175416 22 265 6.4 14.5 0.00 0.00 0.00 60 1014.1
20190325175116 22 270 8.0 11.3 0.00 0.00 0.00 61 1014.2
20190325174815 22 225 0.0 4.8 0.00 0.00 0.00 62 1014.3
20190325174514 22 270 1.6 4.8 0.00 0.00 0.00 63 1014.2
20190325174213 22 225 1.6 3.2 0.00 0.00 0.00 63 1014.3
20190325173910 22 225 1.6 4.8 0.00 0.00 0.00 64 1014.4
20190325173611 22 180 1.6 4.8 0.00 0.00 0.00 64 1014.4
20190325173308 22 180 1.6 6.4 0.00 0.00 0.00 65 1014.5
20190325173009 21 225 3.2 6.4 0.00 0.00 0.00 65 1014.5
20190325172407 21 135 1.6 4.8 0.00 0.00 0.00 66 1014.7
20190325172105 21 180 1.6 6.4 0.00 0.00 0.00 65 1014.6
20190325171504 21 90 4.8 8.0 0.00 0.00 0.00 67 1014.6
20190325171202 21 171 1.6 6.4 0.00 0.00 0.00 67 1014.7
20190325170558 21 90 0.0 1.6 0.00 0.00 0.00 68 1014.8
20190325170257 20 90 1.6 4.8 0.00 0.00 0.00 69 1014.9
20190325165957 20 150 1.6 1.6 0.00 0.00 0.00 70 1014.6
20190325165657 20 236 1.6 4.8 0.00 0.00 0.00 69 1014.6
20190325165356 20 270 1.6 3.2 0.00 0.00 0.00 69 1014.7
20190325165053 20 270 3.2 4.8 0.00 0.00 0.00 70 1014.6
20190325164751 20 225 3.2 3.2 0.00 0.00 0.00 71 1014.7
20190325164452 20 225 1.6 3.2 0.00 0.00 0.00 72 1014.7
20190325164151 20 270 1.6 3.2 0.00 0.00 0.00 73 1014.8
20190325163850 19 270 1.6 3.2 0.00 0.00 0.00 73 1014.7
20190325163246 18 225 0.0 3.2 0.00 0.00 0.00 75 1014.9
20190325162945 18 225 1.6 1.6 0.00 0.00 0.00 76 1015.1
20190325162344 17 270 1.6 3.2 0.00 0.00 0.00 76 1014.8
20190325162041 17 270 3.2 3.2 0.00 0.00 0.00 76 1014.9
20190325161740 17 270 1.6 4.8 0.00 0.00 0.00 78 1014.8
20190325160839 17 180 1.6 3.2 0.00 0.00 0.00 81 1014.5
20190325160536 17 67 3.2 3.2 0.00 0.00 0.00 81 1014.8
20190325160237 16 67 1.6 3.2 0.00 0.00 0.00 81 1014.6
20190325155633 16 90 3.2 3.2 0.00 0.00 0.00 84 1014.8
20190325155333 16 135 0.0 3.2 0.00 0.00 0.00 85 1014.6
20190325154428 14 135 1.6 1.6 0.00 0.00 0.00 88 1014.5
20190325154127 14 135 1.6 1.6 0.00 0.00 0.00 88 1014.4
20190325153828 13 135 0.0 0.0 0.00 0.00 0.00 88 1014.4
20190325152622 12 135 0.0 1.6 0.00 0.00 0.00 89 1014.2
20190325152322 12 135 0.0 1.6 0.00 0.00 0.00 89 1014.1
20190325152021 12 157 1.6 3.2 0.00 0.00 0.00 89 1014.0
20190325151718 12 108 1.6 3.2 0.00 0.00 0.00 90 1013.8
20190325151419 11 90 1.6 1.6 0.00 0.00 0.00 91 1013.9
20190325150812 11 90 0.0 1.6 0.00 0.00 0.00 92 1013.7
20190325150210 10 90 0.0 1.6 0.00 0.00 0.00 93 1013.7
20190325145907 10 90 0.0 0.0 0.00 0.00 0.00 93 1013.8
20190325145606 10 90 0.0 1.6 0.00 0.00 0.00 93 1013.7
20190325145305 10 90 0.0 1.6 0.00 0.00 0.00 93 1013.7
20190325145006 9 90 1.6 1.6 0.00 0.00 0.00 93 1013.5
20190325144702 9 90 0.0 1.6 0.00 0.00 0.00 93 1013.5
20190325144403 8 90 0.0 0.0 0.00 0.00 0.00 93 1013.5
20190325143802 8 90 0.0 1.6 0.00 0.00 0.00 93 1013.5
20190325143500 8 90 1.6 1.6 0.00 0.00 0.00 93 1013.4
20190325143157 7 180 1.6 3.2 0.00 0.00 0.00 93 1013.2
20190325142858 7 45 1.6 3.2 0.00 0.00 0.00 93 1013.3
20190325142554 7 135 0.0 1.6 0.00 0.00 0.00 93 1013.1
20190325142253 7 135 1.6 3.2 0.00 0.00 0.00 93 1013.1
20190325141954 7 135 1.6 3.2 0.00 0.00 0.00 93 1013.1
20190325141651 7 90 3.2 3.2 0.00 0.00 0.00 93 1013.2
20190325141352 7 135 3.2 3.2 0.00 0.00 0.00 93 1013.1
20190325141051 7 90 4.8 4.8 0.00 0.00 0.00 93 1013.1
20190325140750 6 108 3.2 3.2 0.00 0.00 0.00 93 1013.0
20190325140449 6 135 1.6 1.6 0.00 0.00 0.00 93 1013.0
20190325135845 6 157 1.6 1.6 0.00 0.00 0.00 93 1012.9
20190325135544 6 157 0.0 4.8 0.00 0.00 0.00 94 1012.8
20190325134943 6 90 4.8 6.4 0.00 0.00 0.00 94 1012.8
20190325134644 6 45 1.6 3.2 0.00 0.00 0.00 94 1012.9
20190325134341 7 45 1.6 1.6 0.00 0.00 0.00 94 1012.9
20190325133737 7 87 1.6 4.8 0.00 0.00 0.00 95 1012.8
20190325133437 7 87 3.2 6.4 0.00 0.00 0.00 95 1012.8
20190325132835 7 58 4.8 4.8 0.00 0.00 0.00 95 1012.9
20190325132534 7 85 4.8 4.8 0.00 0.00 0.00 95 1012.8
20190325132233 7 96 1.6 8.0 0.00 0.00 0.00 95 1012.8
20190325131930 7 90 3.2 8.0 0.00 0.00 0.00 95 1012.7
20190325131629 7 90 4.8 4.8 0.00 0.00 0.00 95 1012.6
20190325131330 7 65 3.2 6.4 0.00 0.00 0.00 95 1012.7
20190325131029 7 90 6.4 8.0 0.00 0.00 0.00 95 1012.7
20190325130729 7 90 8.0 9.7 0.00 0.00 0.00 95 1012.7
20190325130425 7 90 9.7 9.7 0.00 0.00 0.00 95 1012.8
20190325130123 7 114 4.8 9.7 0.00 0.00 0.00 95 1012.7
20190325125824 7 85 8.0 11.3 0.00 0.00 0.00 95 1012.8
20190325125521 7 90 4.8 11.3 0.00 0.00 0.00 95 1012.7
20190325125222 7 90 8.0 9.7 0.00 0.00 0.00 95 1012.8
20190325124921 7 90 12.9 12.9 0.00 0.00 0.00 95 1012.8
20190325124620 7 90 8.0 11.3 0.00 0.00 0.00 95 1012.8
20190325124018 7 87 6.4 9.7 0.00 0.00 0.00 95 1012.8
20190325123717 7 87 4.8 9.7 0.00 0.00 0.00 95 1012.9
20190325123414 7 90 9.7 9.7 0.00 0.00 0.00 95 1012.9
20190325123114 7 90 6.4 8.0 0.00 0.00 0.00 95 1012.9
20190325122811 7 81 4.8 9.7 0.00 0.00 0.00 95 1013.0
20190325122209 7 81 6.4 9.7 0.00 0.00 0.00 95 1012.9
20190325121607 7 90 8.0 11.3 0.00 0.00 0.00 95 1013.0
20190325121005 7 83 6.4 8.0 0.00 0.00 0.00 95 1013.0
20190325120705 7 87 6.4 8.0 0.00 0.00 0.00 95 1013.1
20190325120403 7 90 6.4 8.0 0.00 0.00 0.00 94 1013.0
20190325120101 7 90 6.4 8.0 0.00 0.00 0.00 95 1013.1
20190325115800 7 90 6.4 8.0 0.00 0.00 0.00 94 1013.1
20190325115501 7 90 6.4 9.7 0.00 0.00 0.00 95 1013.0
20190325115158 7 83 6.4 9.7 0.00 0.00 0.00 95 1013.1
20190325114857 7 63 4.8 8.0 0.00 0.00 0.00 95 1013.2
20190325114556 7 81 4.8 9.7 0.00 0.00 0.00 95 1013.2
20190325114256 7 83 4.8 9.7 0.00 0.00 0.00 95 1013.1
20190325113954 7 85 8.0 9.7 0.00 0.00 0.00 95 1013.1
20190325113653 7 81 6.4 11.3 0.00 0.00 0.00 95 1013.2
20190325113353 7 90 4.8 12.9 0.00 0.00 0.00 95 1013.2
20190325113052 7 87 8.0 12.9 0.00 0.00 0.00 95 1013.2
20190325112751 7 92 9.7 11.3 0.00 0.00 0.00 95 1013.2
20190325112449 7 90 8.0 11.3 0.00 0.00 0.00 95 1013.4
20190325112147 7 90 11.3 11.3 0.00 0.00 0.00 95 1013.3
20190325111846 7 90 9.7 9.7 0.00 0.00 0.00 94 1013.3
20190325111545 7 87 6.4 9.7 0.00 0.00 0.00 94 1013.4
20190325110944 7 90 6.4 9.7 0.00 0.00 0.00 94 1013.4
20190325110342 7 90 4.8 6.4 0.00 0.00 0.00 94 1013.4
20190325110039 7 85 6.4 6.4 0.00 0.00 0.00 94 1013.3
20190325105738 7 87 6.4 8.0 0.00 0.00 0.00 94 1013.4
20190325105437 7 90 6.4 6.4 0.00 0.00 0.00 95 1013.4
20190325105136 7 85 4.8 6.4 0.00 0.00 0.00 94 1013.3
20190325104837 7 90 6.4 8.0 0.00 0.00 0.00 94 1013.3
20190325104537 7 90 6.4 8.0 0.00 0.00 0.00 94 1013.4
20190325104233 7 87 6.4 9.7 0.00 0.00 0.00 94 1013.4
20190325103931 7 87 6.4 9.7 0.00 0.00 0.00 94 1013.6
20190325103630 7 92 9.7 9.7 0.00 0.00 0.00 94 1013.5
20190325103331 7 90 6.4 8.0 0.00 0.00 0.00 94 1013.6
20190325103028 7 90 4.8 8.0 0.00 0.00 0.00 94 1013.6
20190325102727 7 90 8.0 8.0 0.00 0.00 0.00 93 1013.7
20190325102428 7 92 3.2 8.0 0.00 0.00 0.00 94 1013.6
20190325102125 7 90 6.4 8.0 0.00 0.00 0.00 93 1013.7
20190325101826 7 83 4.8 8.0 0.00 0.00 0.00 94 1013.6
20190325101523 7 90 3.2 9.7 0.00 0.00 0.00 93 1013.6
20190325101224 7 87 9.7 9.7 0.00 0.00 0.00 93 1013.7
20190325100922 7 90 4.8 9.7 0.00 0.00 0.00 94 1013.7
20190325100619 7 90 6.4 9.7 0.00 0.00 0.00 93 1013.8
20190325100320 7 90 3.2 6.4 0.00 0.00 0.00 93 1013.8
20190325100019 7 90 6.4 8.0 0.00 0.00 0.00 93 1013.8
20190325095716 7 90 6.4 8.0 0.00 0.00 0.00 93 1013.8
20190325095417 7 90 4.8 6.4 0.00 0.00 0.00 93 1013.9
20190325095114 7 87 4.8 8.0 0.00 0.00 0.00 93 1013.8
20190325094512 7 90 4.8 9.7 0.00 0.00 0.00 93 1014.0
20190325094211 7 90 6.4 9.7 0.00 0.00 0.00 93 1013.9
20190325093911 7 90 6.4 8.0 0.00 0.00 0.00 93 1014.1
20190325093307 7 85 6.4 8.0 0.00 0.00 0.00 93 1014.1
20190325093008 7 96 4.8 6.4 0.00 0.00 0.00 93 1014.1
20190325092705 7 90 6.4 8.0 0.00 0.00 0.00 93 1014.1
20190325092405 7 90 6.4 6.4 0.00 0.00 0.00 93 1014.1
20190325092105 7 81 4.8 4.8 0.00 0.00 0.00 93 1014.2
20190325091802 7 76 3.2 4.8 0.00 0.00 0.00 93 1014.1
20190325091501 7 42 4.8 4.8 0.00 0.00 0.00 93 1014.2
20190325090858 7 49 3.2 4.8 0.00 0.00 0.00 93 1014.3
20190325090559 7 45 3.2 4.8 0.00 0.00 0.00 92 1014.4
20190325090256 7 60 3.2 4.8 0.00 0.00 0.00 92 1014.4
20190325085955 7 54 3.2 4.8 0.00 0.00 0.00 92 1014.4
20190325085654 7 47 3.2 4.8 0.00 0.00 0.00 92 1014.5
20190325085353 7 90 4.8 4.8 0.00 0.00 0.00 92 1014.5
20190325085052 7 74 4.8 4.8 0.00 0.00 0.00 92 1014.5
20190325084450 8 90 3.2 6.4 0.00 0.00 0.00 92 1014.5
20190325084148 8 85 4.8 6.4 0.00 0.00 0.00 92 1014.6
20190325083849 8 87 4.8 6.4 0.00 0.00 0.00 92 1014.6
20190325083546 8 45 3.2 4.8 0.00 0.00 0.00 92 1014.6
20190325083245 8 90 4.8 6.4 0.00 0.00 0.00 92 1014.6
20190325082946 8 87 4.8 6.4 0.00 0.00 0.00 92 1014.7
20190325082643 8 90 4.8 6.4 0.00 0.00 0.00 93 1014.7
20190325082344 8 90 4.8 4.8 0.00 0.00 0.00 92 1014.6
20190325082041 8 101 4.8 4.8 0.00 0.00 0.00 92 1014.6
20190325081740 8 126 1.6 3.2 0.00 0.00 0.00 92 1014.6
20190325081438 8 135 1.6 3.2 0.00 0.00 0.00 92 1014.7
20190325080838 8 90 4.8 4.8 0.00 0.00 0.00 92 1014.7
20190325080535 8 105 3.2 6.4 0.00 0.00 0.00 92 1014.8
20190325080234 8 85 3.2 3.2 0.00 0.00 0.00 92 1014.9
20190325075634 8 76 1.6 4.8 0.00 0.00 0.00 91 1014.8
20190325075331 8 49 3.2 6.4 0.00 0.00 0.00 92 1014.9
20190325075030 8 78 3.2 6.4 0.00 0.00 0.00 91 1015.0
20190325074730 8 90 6.4 6.4 0.00 0.00 0.00 92 1014.9
20190325074427 8 90 4.8 4.8 0.00 0.00 0.00 91 1015.1
20190325074126 8 90 4.8 4.8 0.00 0.00 0.00 91 1015.0
20190325073827 8 67 1.6 3.2 0.00 0.00 0.00 91 1015.0
20190325073524 7 126 3.2 3.2 0.00 0.00 0.00 92 1015.1
20190325072922 7 103 3.2 6.4 0.00 0.00 0.00 91 1015.1
20190325072621 7 83 3.2 4.8 0.00 0.00 0.00 92 1015.1
20190325072320 7 85 3.2 4.8 0.00 0.00 0.00 92 1015.0
20190325072020 7 135 1.6 3.2 0.00 0.00 0.00 91 1015.1
20190325071717 7 180 0.0 3.2 0.00 0.00 0.00 91 1015.0
20190325071418 7 121 1.6 4.8 0.00 0.00 0.00 91 1015.1
20190325071115 7 123 3.2 4.8 0.00 0.00 0.00 91 1015.0
20190325070814 7 45 1.6 4.8 0.00 0.00 0.00 90 1015.0
20190325070213 7 0 0.0 1.6 0.00 0.00 0.00 89 1015.0
20190325065911 7 0 1.6 1.6 0.00 0.00 0.00 89 1015.2
20190325065611 7 45 0.0 1.6 0.00 0.00 0.00 89 1015.1
20190325065309 7 45 0.0 1.6 0.00 0.00 0.00 89 1015.2
20190325065007 7 315 1.6 3.2 0.00 0.00 0.00 89 1015.1
20190325064405 7 315 0.0 1.6 0.00 0.00 0.00 89 1015.2
20190325064105 7 315 1.6 1.6 0.00 0.00 0.00 88 1015.2
20190325063805 7 315 0.0 1.6 0.00 0.00 0.00 89 1015.2
20190325063502 7 315 0.0 1.6 0.00 0.00 0.00 88 1015.2
20190325063201 7 315 1.6 1.6 0.00 0.00 0.00 88 1015.2
20190325062600 7 270 0.0 0.0 0.00 0.00 0.00 88 1015.1
20190325062257 8 270 0.0 3.2 0.00 0.00 0.00 89 1015.2
20190325061956 7 270 1.6 3.2 0.00 0.00 0.00 89 1015.2
20190325061655 7 301 0.0 3.2 0.00 0.00 0.00 88 1015.2
20190325061354 7 0 0.0 0.0 0.00 0.00 0.00 88 1015.0
20190325061055 7 0 0.0 0.0 0.00 0.00 0.00 88 1015.0
20190325060754 7 0 0.0 1.6 0.00 0.00 0.00 87 1015.0
20190325060453 7 0 0.0 1.6 0.00 0.00 0.00 87 1015.0
20190325060150 7 22 1.6 1.6 0.00 0.00 0.00 87 1014.9
20190325055850 7 22 0.0 1.6 0.00 0.00 0.00 87 1015.0
20190325055548 8 22 0.0 0.0 0.00 0.00 0.00 86 1015.1
20190325055246 8 22 0.0 0.0 0.00 0.00 0.00 86 1015.0
20190325054945 8 22 0.0 0.0 0.00 0.00 0.00 85 1015.0
20190325054644 8 22 0.0 0.0 0.00 0.00 0.00 85 1015.0
20190325054345 8 22 0.0 0.0 0.00 0.00 0.00 85 1015.0
20190325054042 8 22 0.0 1.6 0.00 0.00 0.00 86 1015.0
20190325053741 8 22 0.0 0.0 0.00 0.00 0.00 85 1014.9
20190325053139 8 22 0.0 1.6 0.00 0.00 0.00 86 1015.0
20190325052838 8 22 0.0 0.0 0.00 0.00 0.00 85 1015.0
20190325052538 8 22 0.0 1.6 0.00 0.00 0.00 85 1014.9
20190325052237 8 22 0.0 0.0 0.00 0.00 0.00 85 1014.9
20190325051635 8 22 0.0 1.6 0.00 0.00 0.00 85 1015.0
20190325051334 8 22 0.0 1.6 0.00 0.00 0.00 85 1014.9
20190325050730 8 13 1.6 1.6 0.00 0.00 0.00 85 1015.1
20190325050429 8 0 0.0 1.6 0.00 0.00 0.00 85 1015.0
20190325045826 8 0 0.0 3.2 0.00 0.00 0.00 84 1015.2
20190325045527 8 0 1.6 1.6 0.00 0.00 0.00 84 1015.2
20190325045224 8 0 0.0 1.6 0.00 0.00 0.00 83 1015.1
20190325044923 8 0 0.0 1.6 0.00 0.00 0.00 83 1015.1
20190325044321 8 0 0.0 1.6 0.00 0.00 0.00 83 1015.2
20190325044022 9 0 1.6 1.6 0.00 0.00 0.00 83 1015.1
20190325043117 9 0 0.0 0.0 0.00 0.00 0.00 81 1015.0
20190325042815 9 0 0.0 0.0 0.00 0.00 0.00 81 1015.0
20190325042514 9 0 0.0 0.0 0.00 0.00 0.00 81 1015.0
20190325042215 10 0 0.0 0.0 0.00 0.00 0.00 81 1014.9
20190325041912 10 0 0.0 0.0 0.00 0.00 0.00 81 1014.9
20190325041611 10 0 0.0 1.6 0.00 0.00 0.00 82 1014.9
20190325041310 10 0 1.6 1.6 0.00 0.00 0.00 82 1015.0
20190325041009 10 0 1.6 1.6 0.00 0.00 0.00 82 1015.0
20190325040709 10 0 1.6 1.6 0.00 0.00 0.00 81 1015.1
20190325040407 10 0 1.6 3.2 0.00 0.00 0.00 81 1015.0
20190325040108 10 0 1.6 1.6 0.00 0.00 0.00 80 1015.0
20190325035806 10 0 0.0 1.6 0.00 0.00 0.00 80 1015.0
20190325035503 10 0 0.0 0.0 0.00 0.00 0.00 79 1015.0
20190325035204 10 0 0.0 1.6 0.00 0.00 0.00 80 1014.8
20190325034600 10 0 1.6 3.2 0.00 0.00 0.00 79 1014.8
20190325033658 11 0 1.6 3.2 0.00 0.00 0.00 77 1014.6
20190325033356 11 249 0.0 1.6 0.00 0.00 0.00 77 1014.5
20190325033056 11 270 1.6 1.6 0.00 0.00 0.00 77 1014.6
20190325032755 11 315 1.6 1.6 0.00 0.00 0.00 77 1014.5
20190325032452 11 270 1.6 1.6 0.00 0.00 0.00 77 1014.5
20190325032151 11 270 1.6 3.2 0.00 0.00 0.00 76 1014.5
20190325031852 11 270 3.2 4.8 0.00 0.00 0.00 76 1014.7
20190325031549 11 270 3.2 4.8 0.00 0.00 0.00 76 1014.5
20190325030943 11 283 1.6 3.2 0.00 0.00 0.00 75 1014.4
20190325030334 11 270 4.8 4.8 0.00 0.00 0.00 73 1014.6
20190325030033 12 225 0.0 1.6 0.00 0.00 0.00 72 1014.3
20190325025732 12 225 1.6 1.6 0.00 0.00 0.00 72 1014.4
20190325025433 12 225 0.0 1.6 0.00 0.00 0.00 72 1014.3
20190325024829 12 270 3.2 4.8 0.00 0.00 0.00 72 1014.4
20190325024528 12 270 1.6 6.4 0.00 0.00 0.00 72 1014.4
20190325024227 12 270 1.6 8.0 0.00 0.00 0.00 72 1014.3
20190325023927 12 267 6.4 8.0 0.00 0.00 0.00 70 1014.3
20190325023625 12 263 3.2 4.8 0.00 0.00 0.00 70 1014.3
20190325023326 12 229 1.6 3.2 0.00 0.00 0.00 69 1014.2
20190325023025 13 225 3.2 3.2 0.00 0.00 0.00 69 1014.2
20190325022723 13 270 1.6 6.4 0.00 0.00 0.00 69 1014.3
20190325022420 13 254 3.2 6.4 0.00 0.00 0.00 68 1014.3
20190325022119 13 267 1.6 6.4 0.00 0.00 0.00 68 1014.2
20190325021216 14 247 3.2 6.4 0.00 0.00 0.00 66 1014.0
20190325020314 15 243 4.8 6.4 0.00 0.00 0.00 65 1014.2
20190325020013 15 270 3.2 6.4 0.00 0.00 0.00 64 1014.2
20190325015712 15 256 4.8 6.4 0.00 0.00 0.00 63 1014.3
20190325015411 16 270 3.2 4.8 0.00 0.00 0.00 63 1014.2
20190325015110 16 234 4.8 4.8 0.00 0.00 0.00 63 1014.0
20190325014809 16 270 1.6 4.8 0.00 0.00 0.00 62 1014.1
20190325014508 16 229 1.6 4.8 0.00 0.00 0.00 62 1014.1
20190325014205 16 229 3.2 3.2 0.00 0.00 0.00 61 1014.1
20190325013907 17 247 1.6 6.4 0.00 0.00 0.00 61 1013.9
20190325013602 17 225 1.6 6.4 0.00 0.00 0.00 61 1013.9
20190325013301 17 213 1.6 6.4 0.00 0.00 0.00 61 1014.2
20190325013002 17 231 3.2 6.4 0.00 0.00 0.00 61 1014.4
20190325012701 18 261 1.6 4.8 0.00 0.00 0.00 60 1014.1
20190325012358 18 252 3.2 6.4 0.00 0.00 0.00 60 1014.0
20190325012057 18 225 1.6 6.4 0.00 0.00 0.00 60 1014.2
20190325011758 18 225 1.6 3.2 0.00 0.00 0.00 59 1014.1
20190325011457 19 270 1.6 6.4 0.00 0.00 0.00 59 1014.1
20190325011156 19 270 3.2 8.0 0.00 0.00 0.00 58 1013.9
20190325010854 19 315 3.2 4.8 0.00 0.00 0.00 59 1013.9
20190325010551 20 215 1.6 4.8 0.00 0.00 0.00 59 1013.9
20190325010252 20 270 1.6 4.8 0.00 0.00 0.00 59 1014.0
20190325005951 20 222 1.6 6.4 0.00 0.00 0.00 59 1014.0
20190325005650 20 180 3.2 3.2 0.00 0.00 0.00 59 1014.0
20190325005349 20 225 3.2 6.4 0.00 0.00 0.00 58 1014.0
20190325005046 20 247 1.6 4.8 0.00 0.00 0.00 58 1014.0
20190325004446 20 256 4.8 8.0 0.00 0.00 0.00 58 1013.8
20190325004145 20 222 3.2 6.4 0.00 0.00 0.00 58 1013.8
20190325003542 20 258 8.0 11.3 0.00 0.00 0.00 58 1013.9
20190325003239 20 267 6.4 9.7 0.00 0.00 0.00 58 1014.0
20190325002941 20 270 8.0 8.0 0.00 0.00 0.00 58 1014.0
20190325002718 20 240 6.4 8.0 0.00 0.00 0.00 58 1014.1
20190325002637 20 240 6.4 8.0 0.00 0.00 0.00 58 1014.1
20190325002336 20 245 8.0 8.0 0.00 0.00 0.00 59 1014.0
20190325002036 20 249 6.4 9.7 0.00 0.00 0.00 58 1014.0
20190325001734 20 272 11.3 14.5 0.00 0.00 0.00 58 1014.0
20190325001435 20 255 4.8 9.7 0.00 0.00 0.00 58 1014.1
20190325001133 20 255 8.0 12.9 0.00 0.00 0.00 58 1014.1
20190325000830 20 260 8.0 12.9 0.00 0.00 0.00 58 1013.9
20190325000529 20 274 8.0 16.1 0.00 0.00 0.00 58 1014.0